Tracking 17886 objects as of 8-December-2016
HD Live streaming from Space Station
objects crossing your sky now

PSLV DEB

Track PSLV DEB now!
10-day predictions


NORAD ID: 27114
Int'l Code: 2001-049BJ
Perigee: 359.3 km
Apogee: 366.2 km
Inclination: 97.8 °
Period: 91.7 minutes
Semi major axis: 6733 km
RCS: 0.0473 m2 (small)
Launch date: October 22, 2001
Source: India (IND)
Launch site: SIRHARIKOTA (SRI)

Note: This is SATELLITE DEBRIS
Your satellite tracking list
Your tracking list is empty





NASA's NSSDC Master Catalog

Two Line Element Set (TLE):
1 27114U 01049BJ  16343.02435589  .00090749  00000-0  71530-3 0  9990
2 27114  97.8201   7.2452 0005140 154.7212 205.4302 15.71142714815953
Source of the keplerian elements: AFSPC